This is the latest recevied weather packets stored in our database for station/object JP3QZN-13. If no packets are shown the sender has not sent any weather packets the latest 1 day(s).
| Time | Temp. | Humidity | Pressure | Rain* | Wind** | Luminosity | Snow |
|---|---|---|---|---|---|---|---|
| 1778041819 | 21.11° C | 53% | 1023.5 hPa | 0 mm | 0.45 m/s, 112° | - | - |
| 1778040018 | 20° C | 56% | 1024.1 hPa | 0 mm | 0 m/s | - | - |
| 1778038217 | 18.89° C | 58% | 1024.4 hPa | 0 mm | 0.89 m/s, 112° | - | - |
| 1778036409 | 18.33° C | 58% | 1025.2 hPa | 0 mm | 0 m/s | - | - |
| 1778034609 | 18.33° C | 57% | 1025.5 hPa | 0 mm | 0.45 m/s, 112° | - | - |
| 1778032808 | 18.33° C | 56% | 1025.8 hPa | 0 mm | 0 m/s | - | - |
| 1778031007 | 18.33° C | 60% | 1025.9 hPa | 0 mm | 0 m/s | - | - |
| 1778029206 | 17.78° C | 63% | 1026.3 hPa | 0 mm | 0 m/s | - | - |
| 1778027406 | 17.78° C | 60% | 1026.9 hPa | 0 mm | 0 m/s | - | - |
| 1778025605 | 17.78° C | 58% | 1027.2 hPa | 0 mm | 0 m/s | - | - |
| 1778022004 | 16.11° C | 58% | 1027.1 hPa | 0 mm | 0 m/s | - | - |
| 1778020203 | 16.11° C | 57% | 1027.4 hPa | 0 mm | 0.89 m/s, 135° | - | - |
| 1778018402 | 15.56° C | 58% | 1027.2 hPa | 0 mm | 0 m/s | - | - |
| 1778016601 | 15° C | 59% | 1027.1 hPa | 0 mm | 0.45 m/s, 112° | - | - |
| 1778014807 | 15° C | 59% | 1026.6 hPa | 0 mm | 0 m/s | - | - |
| 1778013016 | 15° C | 58% | 1026.3 hPa | 0 mm | 0.45 m/s, 135° | - | - |
| 1778011216 | 15° C | 59% | 1025.6 hPa | 0 mm | 0 m/s | - | - |
| 1778009415 | 15° C | 58% | 1025.9 hPa | 0 mm | 0 m/s | - | - |
| 1778009408 | 15° C | 58% | 1025.9 hPa | 0 mm | 0.45 m/s, 135° | - | - |
| 1778007607 | 15° C | 59% | 1025.7 hPa | 0 mm | 0 m/s | - | - |
| 1778005807 | 15° C | 58% | 1025.6 hPa | 0 mm | 0 m/s | - | - |
| 1778004006 | 15° C | 58% | 1025.3 hPa | 0 mm | 0 m/s | - | - |
| 1778002205 | 15.56° C | 57% | 1025.1 hPa | 0 mm | 0 m/s | - | - |
| 1778000404 | 15.56° C | 56% | 1024.6 hPa | 0 mm | 0 m/s | - | - |
| 1777998604 | 15.56° C | 55% | 1024.5 hPa | 0 mm | 0 m/s | - | - |
* Rain latest hour (hover to see other rain measurements)
** Current wind speed in m/s (hover to see current wind gust speed)